Weather in Varniai

Lithuania     55°44′33″N   22°22′16″E
temp.,
°C
wind,
m/s
gust,
m/s
humid.,
%
clouds,
%
prec.,
mm/h
press.,
hPa
HPBL,
m
28 july, wed
wed2800:00+17wsw259784 0.0 101197
03:00+16wsw289879 0.0 1011183
06:00+16sw269820 0.0 1010153
09:00+21wsw3580100 0.0 1011405
12:00+25sw35539 0.0 10101446
15:00+26wsw5645100 0.5 10102080
18:00+26wsw464417 0.0 10091705
21:00+20wsw247082 0.0 100958
29 july, thu
thu2900:00+17wsw228499 0.1 100944
03:00+15ssw2598100 0.8 1008136
06:00+15wsw2710047 0.0 1008192
09:00+19wsw47864 0.0 1008563
12:00+24wsw585064 0.0 10071817
15:00+24wsw795393 0.1 10071844
18:00+22w595236 0.0 10071585
21:00+16w4108745 0.4 1008585
30 july, fri
fri3000:00+13sw310965 0.0 1008246
03:00+12ssw310945 0.0 1007240
06:00+13ssw413925 0.1 1006451
09:00+18sw613655 0.1 10061575
12:00+20wsw81248100 0.0 10051887
15:00+21wsw812402 0.0 10052084
18:00+20wsw71450100 0.0 10041925
21:00+17wsw716645 0.0 10031525
31 july, sat
sat3100:00+17wsw7147395 0.0 10031058
03:00+17wsw6128443 0.0 1004869
06:00+15wsw4119089 0.0 1004470
09:00+19sw5869100 0.0 1004939
12:00+22sw5748100 0.0 10041198
15:00+25ssw5943100 0.0 10022449
18:00+19wsw4108560 0.9 1002749
21:00+16w39903 1.2 1003426
1 august, sun
sun100:00+14sw412903 0.0 1003699
03:00+16sw51290100 0.3 1003870
06:00+15sw5129498 1.6 1003738
09:00+17wsw510850 3.6 10041091
12:00+19w61061100 0.1 10061523
15:00+20wsw6956100 0.1 10071722
18:00+20wsw576098 0.2 10071464
21:00+16wsw248080 0.2 100779